Location: Mentone
(34.5413°N, 85.5351°W)
Time: 05:22:21
(UTC-05:00)

Amateur Radio Satellites - All Passes

Search period start: 27 May 2016 04:52
Search period end: 28 May 2016 04:52
Location: Mentone, 34.5413°N, 85.5351°W

Satellite Date Start Highest point End Downlink Frequencies (MHz)
Time Altitude Azimuth
Cosmos 2491 27 May 05:02:56 05:11:30 53° 281° (W) 05:20:06 435.465 / 435.565
HORYU 2 27 May 05:31:14 05:35:40 87° 98° (E) 05:40:07 437.375
Cosmos 2504 27 May 05:39:54 05:48:15 62° 268° (W) 05:56:56 435.465 / 435.565
JUGNU 27 May 05:41:46 05:44:15 13° 166° (SSE) 05:46:44 437.505
CUBESAT XI-V 27 May 05:43:34 05:48:10 60° 259° (W) 05:52:49 437.345
AO-85 27 May 05:43:35 05:48:55 58° 115° (ESE) 05:54:13 145.980
ISS 27 May 06:12:27 06:13:18 11° 234° (SW) 06:14:07 145.825
NOAA 18 27 May 06:19:14 06:24:16 36° 99° (E) 06:29:17 137.9125
NOAA 15 27 May 06:23:27 06:28:35 49° 100° (E) 06:33:40 137.62
Cubesat XI-IV 27 May 06:26:06 06:30:58 35° 98° (E) 06:35:50 437.490
AO-7 27 May 06:33:42 06:39:07 19° 304° (NW) 06:44:33 29.400- 29.500
STRAND 1 27 May 06:46:42 06:51:33 46° 72° (ENE) 06:56:25 437.568
DOVE 4 27 May 06:53:43 06:55:41 13° 92° (E) 06:57:37 437.250
LilacSat-2 27 May 06:58:49 07:02:36 85° 103° (ESE) 07:06:24 437.200
BRITE-PL 27 May 07:09:58 07:15:01 67° 285° (WNW) 07:19:37 437.365/2234.400
CUTE-I 27 May 07:12:13 07:17:36 81° 284° (WNW) 07:22:58 437.470
AO-85 27 May 07:25:48 07:29:46 20° 311° (NW) 07:33:41 145.980
JUGNU 27 May 07:28:30 07:32:33 19° 176° (S) 07:36:35 437.505
SRMSAT 27 May 07:34:56 07:36:31 11° 165° (SSE) 07:38:07 437.500
CANX-2 27 May 07:36:38 07:38:24 12° 92° (E) 07:40:09 2200.000
GOMX 1 27 May 07:37:42 07:42:20 73° 285° (WNW) 07:46:39 467.674
PRISM 27 May 07:38:21 07:41:41 24° 70° (ENE) 07:45:03 437.425
NOAA 18 27 May 08:00:17 08:04:41 25° 293° (WNW) 08:09:05 137.9125
CUTE 1.7 + AOD 2 27 May 08:02:34 08:05:56 22° 95° (E) 08:09:18 437.475
NOAA 15 27 May 08:04:26 08:07:55 18° 295° (WNW) 08:11:23 137.62
Cubesat XI-IV 27 May 08:06:31 08:10:50 25° 292° (WNW) 08:15:09 437.490
AUBIESAT-1 27 May 08:07:15 08:09:35 18° 101° (E) 08:11:56 437.475
GONETS M04 27 May 08:07:31 08:14:39 27° 72° (ENE) 08:21:43
M-CUBED/EXP-1 PRIME 27 May 08:13:01 08:15:51 27° 103° (ESE) 08:18:41 437.505
CUBEBUG 2 27 May 08:22:54 08:23:27 10° 92° (E) 08:24:00 437.445
Cosmos 2499 27 May 08:24:23 08:30:38 21° 70° (ENE) 08:36:56 435.465 / 435.565
COMPASS 1 27 May 08:26:19 08:29:31 21° 95° (E) 08:32:43 437.405
STRAND 1 27 May 08:27:42 08:30:55 17° 266° (W) 08:34:09 437.568
AIST 1 27 May 08:28:03 08:32:23 68° 82° (E) 08:36:39
DOVE 4 27 May 08:29:33 08:33:38 40° 287° (WNW) 08:37:32 437.250
AAUSAT CUBESAT 2 27 May 08:29:39 08:32:32 18° 94° (E) 08:35:24 437.432
HO-68 27 May 08:30:36 08:37:37 54° 101° (ESE) 08:44:35 435.675
PCSat 27 May 08:47:34 08:51:55 25° 107° (ESE) 08:56:18 145.827
UWE-3 27 May 08:50:40 08:53:19 16° 94° (E) 08:55:57 435.000/436.395/437.385
SO-50 27 May 08:53:49 08:57:33 23° 51° (NE) 09:01:12 436.795
FUNcube-1 27 May 08:57:28 08:58:46 11° 93° (E) 09:00:04 145.935
CINEMA 3 27 May 09:03:36 09:07:42 60° 284° (WNW) 09:11:47 145.822/145.860
O/OREOS (USA 219) 27 May 09:08:37 09:12:59 46° 105° (ESE) 09:17:20 437.305
CANX-2 27 May 09:10:20 09:14:26 45° 286° (WNW) 09:18:31 2200.000
ANTELSAT 27 May 09:11:24 09:13:14 12° 67° (ENE) 09:15:03 437.575/2403.000
PRISM 27 May 09:13:40 09:16:53 22° 264° (W) 09:20:08 437.425
SEEDS 27 May 09:13:54 09:18:08 67° 284° (WNW) 09:22:21 437.485
JUGNU 27 May 09:16:59 09:20:52 18° 186° (S) 09:24:45 437.505
SRMSAT 27 May 09:21:04 09:24:57 18° 174° (S) 09:28:50 437.500
CUTE 1.7 + AOD 2 27 May 09:38:11 09:41:41 25° 289° (WNW) 09:45:11 437.475
Oscar 11 27 May 09:39:31 09:43:44 47° 99° (E) 09:47:55 145.826/435.025
AUBIESAT-1 27 May 09:41:44 09:44:00 17° 294° (WNW) 09:46:16 437.475
M-CUBED/EXP-1 PRIME 27 May 09:49:04 09:50:11 11° 296° (WNW) 09:51:17 437.505
ZACube-1 27 May 09:52:43 09:56:52 61° 101° (E) 10:01:06 437.345
CUBEBUG 2 27 May 09:56:17 10:00:19 49° 285° (WNW) 10:04:24 437.445
COMPASS 1 27 May 10:01:30 10:05:00 26° 289° (WNW) 10:08:30 437.405
GONETS M04 27 May 10:03:25 10:11:48 56° 270° (W) 10:20:11
UNISAT 6 27 May 10:03:59 10:08:15 52° 75° (ENE) 10:12:28 437.425
AAUSAT CUBESAT 2 27 May 10:04:21 10:08:00 30° 288° (WNW) 10:11:40 437.432
HUMSAT D 27 May 10:05:55 10:08:47 18° 95° (E) 10:11:41 437.325/437.525
TIGRISAT 27 May 10:11:38 10:15:57 61° 76° (ENE) 10:20:13 435.000
Cosmos 2499 27 May 10:15:45 10:24:24 74° 267° (W) 10:33:14 435.465 / 435.565
NANOSAT C BR1 27 May 10:16:29 10:17:19 10° 66° (ENE) 10:18:09 145.865
HO-68 27 May 10:19:12 10:24:52 26° 297° (WNW) 10:30:32 435.675
UWE-3 27 May 10:26:04 10:29:48 32° 287° (WNW) 10:33:36 435.000/436.395/437.385
PCSat 27 May 10:30:05 10:35:04 37° 302° (WNW) 10:40:06 145.827
FUNcube-1 27 May 10:31:10 10:35:12 47° 285° (WNW) 10:39:17 145.935
SO-50 27 May 10:33:55 10:38:04 33° 248° (WSW) 10:42:05 436.795
DELFI C3 27 May 10:37:34 10:41:35 71° 283° (WNW) 10:45:36 145.870
ANTELSAT 27 May 10:45:16 10:49:31 48° 260° (W) 10:53:42 437.575/2403.000
O/OREOS (USA 219) 27 May 10:49:59 10:52:36 15° 301° (WNW) 10:55:13 437.305
DUCHIFAT 1 27 May 10:52:15 10:55:49 27° 71° (ENE) 10:59:22 145.980
BEESAT 3 27 May 11:02:42 11:06:26 44° 115° (ESE) 11:10:12 437.485
JUGNU 27 May 11:07:50 11:09:09 11° 196° (SSW) 11:10:27 437.505
SRMSAT 27 May 11:09:28 11:13:26 18° 185° (S) 11:17:23 437.500
BUGSAT 1 27 May 11:12:28 11:15:39 21° 70° (ENE) 11:18:49 437.445
ESTCUBE 1 27 May 11:15:14 11:18:37 20° 95° (E) 11:21:59 437.505/2401.250
Oscar 11 27 May 11:17:28 11:19:25 13° 293° (WNW) 11:21:21 145.826/435.025
DANDE 27 May 11:18:29 11:21:48 17° 80° (E) 11:25:37 436.750
50 SAT 27 May 11:23:07 11:25:26 16° 95° (E) 11:27:46 437.505
CUSAT 1 27 May 11:24:56 11:30:40 51° 91° (E) 11:37:47 437.405
POPSAT HIP 1 27 May 11:29:10 11:33:25 87° 72° (ENE) 11:37:40 437.405
QB50P1 27 May 11:29:36 11:33:52 89° 63° (ENE) 11:38:06 145.935-145.965
QB50P2 27 May 11:31:47 11:36:02 81° 260° (W) 11:40:17 145.880/145.840
CUBEBUG 1 27 May 11:32:57 11:36:17 21° 95° (E) 11:39:35 437.445
POLYITAN 1 27 May 11:34:15 11:38:30 79° 258° (WSW) 11:42:44 437.675
DX 1 27 May 11:35:10 11:38:06 18° 95° (E) 11:41:00 434.975-435.025
JAS-2 27 May 11:36:14 11:41:56 25° 63° (ENE) 11:47:56 435.910
VELOX 1 27 May 11:38:44 11:42:18 24° 96° (E) 11:45:52 145.980
HUMSAT D 27 May 11:40:47 11:44:24 29° 288° (WNW) 11:48:03 437.325/437.525
UNISAT 6 27 May 11:44:14 11:45:12 11° 268° (W) 11:46:11 437.425
NANOSAT C BR1 27 May 11:48:23 11:52:32 55° 260° (W) 11:56:41 145.865
SPROUT 27 May 12:02:03 12:04:45 16° 94° (E) 12:07:25 437.525
BEESAT 2 27 May 12:04:37 12:08:32 58° 301° (WNW) 12:12:28 435.950
Cosmos 2499 27 May 12:13:41 12:16:03 11° 283° (WNW) 12:18:27 435.465 / 435.565
AISAT 27 May 12:14:07 12:18:31 68° 101° (ESE) 12:22:52 437.250
UKube-1 27 May 12:23:58 12:28:13 54° 101° (E) 12:32:26 .
DUCHIFAT 1 27 May 12:28:20 12:31:27 20° 265° (W) 12:34:35 145.980
AIST 2 27 May 12:35:37 12:37:45 14° 108° (ESE) 12:39:54 435.215
BEESAT 3 27 May 12:42:16 12:44:21 14° 310° (NW) 12:46:27 437.485
BUGSAT 1 27 May 12:47:19 12:50:51 26° 263° (W) 12:54:22 437.445
ESTCUBE 1 27 May 12:51:26 12:55:25 31° 289° (WNW) 12:59:23 437.505/2401.250
50 SAT 27 May 12:56:01 12:59:09 26° 288° (WNW) 13:02:16 437.505
Oscar 19 27 May 12:57:00 13:01:55 45° 72° (ENE) 13:06:52 437.125/150
DANDE 27 May 12:58:34 13:03:34 55° 283° (WNW) 13:10:14 436.750
SRMSAT 27 May 12:59:39 13:01:51 12° 194° (SSW) 13:04:04 437.500
CUSAT 1 27 May 13:08:12 13:13:14 25° 293° (WNW) 13:19:08 437.405
CUBEBUG 1 27 May 13:08:49 13:12:31 27° 289° (WNW) 13:16:10 437.445
DX 1 27 May 13:10:26 13:14:20 32° 288° (WNW) 13:18:11 434.975-435.025
VELOX 1 27 May 13:15:03 13:18:40 25° 290° (WNW) 13:22:14 145.980
Gurwin Techsat 1B 27 May 13:17:52 13:22:23 29° 69° (ENE) 13:26:56 435.225
JAS-2 27 May 13:19:10 13:26:14 62° 260° (W) 13:33:56 435.910
SPROUT 27 May 13:36:56 13:40:45 33° 288° (WNW) 13:44:33 437.525
ITAMSAT 1 27 May 13:39:45 13:43:07 18° 65° (ENE) 13:46:31 435.822/435.867
AO-7 27 May 13:45:45 13:50:27 17° 54° (NE) 13:55:09 29.400- 29.500
TISAT 1 27 May 14:01:44 14:05:53 68° 284° (WNW) 14:10:00 437.305
UKube-1 27 May 14:02:24 14:03:44 11° 295° (WNW) 14:05:05 .
AIST 2 27 May 14:11:57 14:15:51 41° 303° (WNW) 14:19:47 435.215
AO-85 27 May 14:20:27 14:23:41 18° 48° (NE) 14:26:43 145.980
SWISSCUBE 27 May 14:36:20 14:40:59 49° 100° (E) 14:45:36 437.505
Oscar 19 27 May 14:37:57 14:41:24 18° 266° (W) 14:44:53 437.125/150
ITUPSAT 1 27 May 14:42:20 14:47:01 50° 100° (E) 14:51:40 437.325
Gurwin Techsat 1B 27 May 14:57:41 15:02:14 29° 263° (W) 15:06:49 435.225
BEESAT 27 May 15:05:58 15:10:46 87° 288° (WNW) 15:15:34 436.000
YUBILEINY 27 May 15:14:28 15:21:36 30° 85° (E) 15:28:45 435.215
ITAMSAT 1 27 May 15:17:13 15:22:10 48° 260° (W) 15:27:10 435.822/435.867
Cosmos 2491 27 May 15:17:27 15:26:11 67° 81° (E) 15:34:48 435.465 / 435.565
AO-7 27 May 15:33:42 15:41:59 85° 71° (ENE) 15:50:20 29.400- 29.500
AO-85 27 May 16:00:09 16:04:21 39° 247° (WSW) 16:08:11 145.980
KKS-1 27 May 16:04:38 16:08:54 44° 100° (E) 16:13:06 437.445
SWISSCUBE 27 May 16:15:35 16:18:20 15° 294° (WNW) 16:21:03 437.505
MOZHAYETS 4 27 May 16:18:39 16:23:09 49° 100° (E) 16:27:38
ITUPSAT 1 27 May 16:21:41 16:24:24 15° 294° (WNW) 16:27:06 437.325
Cosmos 2504 27 May 16:24:21 16:28:57 18° 81° (E) 16:33:39 435.465 / 435.565
HORYU 2 27 May 16:25:38 16:29:55 50° 74° (ENE) 16:34:11 437.375
RS-15 27 May 16:39:42 16:50:23 53° 109° (ESE) 17:01:36 29.354- 29.394
STARS 27 May 16:40:41 16:45:00 58° 101° (E) 16:49:16 437.465
BRITE-PL 27 May 16:41:38 16:43:26 12° 62° (ENE) 16:45:15 437.365/2234.400
CUTE-I 27 May 16:54:09 16:56:27 13° 63° (ENE) 16:58:45 437.470
YUBILEINY 27 May 17:09:33 17:17:54 51° 281° (W) 17:26:18 435.215
Cosmos 2491 27 May 17:15:59 17:22:07 22° 278° (W) 17:28:16 435.465 / 435.565
AO-7 27 May 17:30:45 17:35:31 16° 267° (W) 17:40:19 29.400- 29.500
LilacSat-2 27 May 17:37:51 17:40:56 24° 72° (ENE) 17:44:00 437.200
NOAA 15 27 May 17:39:53 17:45:03 56° 73° (ENE) 17:50:15 137.62
PCSat 27 May 17:40:24 17:42:08 11° 46° (NE) 17:43:51 145.827
NOAA 18 27 May 17:42:00 17:47:14 50° 72° (ENE) 17:52:30 137.9125
KKS-1 27 May 17:42:43 17:45:02 14° 294° (WNW) 17:47:20 437.445
CUBESAT XI-V 27 May 17:43:42 17:48:11 44° 98° (E) 17:52:39 437.345
Cubesat XI-IV 27 May 17:44:40 17:49:35 41° 71° (ENE) 17:54:33 437.490
DOVE 4 27 May 17:55:44 17:58:00 13° 66° (ENE) 18:00:14 437.250
MOZHAYETS 4 27 May 17:57:28 17:59:51 14° 294° (WNW) 18:02:15
HORYU 2 27 May 18:05:12 18:06:42 12° 267° (W) 18:08:13 437.375
Cosmos 2504 27 May 18:14:21 18:21:26 63° 279° (W) 18:28:54 435.465 / 435.565
BRITE-PL 27 May 18:15:25 18:21:01 89° 260° (W) 18:26:46 437.365/2234.400
STARS 27 May 18:19:44 18:20:49 11° 295° (WNW) 18:21:54 437.465
CUTE-I 27 May 18:30:33 18:35:50 70° 257° (WSW) 18:41:09 437.470
GOMX 1 27 May 18:40:35 18:46:04 80° 77° (ENE) 18:51:30 467.674
AUBIESAT-1 27 May 18:50:13 18:52:59 18° 66° (ENE) 18:55:38 437.475
RS-15 27 May 18:52:23 19:02:59 43° 311° (NW) 19:14:14 29.354- 29.394
CUTE 1.7 + AOD 2 27 May 18:54:26 18:55:14 10° 66° (ENE) 18:56:03 437.475
M-CUBED/EXP-1 PRIME 27 May 18:56:04 18:59:35 26° 68° (ENE) 19:02:55 437.505
HO-68 27 May 18:56:14 19:02:05 28° 64° (ENE) 19:07:55 435.675
STRAND 1 27 May 19:01:26 19:05:18 21° 95° (E) 19:09:09 437.568
LilacSat-2 27 May 19:12:32 19:15:10 18° 265° (W) 19:17:48 437.200
PCSat 27 May 19:20:53 19:26:20 83° 64° (ENE) 19:31:44 145.827
O/OREOS (USA 219) 27 May 19:22:03 19:26:23 48° 67° (ENE) 19:30:42 437.305
NOAA 15 27 May 19:22:10 19:25:07 15° 267° (W) 19:28:03 137.62
CUBESAT XI-V 27 May 19:22:19 19:25:10 16° 293° (WNW) 19:28:01 437.345
NOAA 18 27 May 19:24:34 19:28:07 18° 266° (W) 19:31:42 137.9125
BEESAT 3 27 May 19:25:39 19:26:19 10° 47° (NE) 19:27:01 437.485
Cubesat XI-IV 27 May 19:25:52 19:29:46 21° 265° (W) 19:33:41 437.490
DOVE 4 27 May 19:29:52 19:35:07 68° 259° (W) 19:40:13 437.250
CANX-2 27 May 19:59:06 20:03:17 78° 76° (ENE) 20:07:30 2200.000
CINEMA 3 27 May 20:00:51 20:05:39 78° 78° (ENE) 20:10:16 145.822/145.860
SEEDS 27 May 20:01:54 20:05:55 50° 75° (ENE) 20:09:58 437.485
GOMX 1 27 May 20:23:15 20:24:34 11° 270° (W) 20:25:52 467.674
AUBIESAT-1 27 May 20:23:31 20:27:16 31° 257° (WSW) 20:30:49 437.475
BEESAT 2 27 May 20:26:15 20:29:37 26° 54° (NE) 20:32:59 435.950
CUTE 1.7 + AOD 2 27 May 20:26:27 20:30:33 54° 260° (W) 20:34:41 437.475
M-CUBED/EXP-1 PRIME 27 May 20:30:43 20:34:02 22° 258° (WSW) 20:37:11 437.505
Oscar 11 27 May 20:31:18 20:34:43 24° 70° (ENE) 20:38:09 145.826/435.025
STRAND 1 27 May 20:39:48 20:44:32 38° 289° (WNW) 20:49:15 437.568
HO-68 27 May 20:42:34 20:49:24 49° 259° (W) 20:56:18 435.675
ZACube-1 27 May 20:45:22 20:49:04 30° 72° (ENE) 20:52:43 437.345
COMPASS 1 27 May 20:47:52 20:51:57 61° 260° (W) 20:56:04 437.405
AAUSAT CUBESAT 2 27 May 20:50:17 20:54:23 74° 259° (W) 20:58:32 437.432
CUBEBUG 2 27 May 20:50:22 20:54:48 84° 76° (ENE) 20:59:07 437.445
AIST 1 27 May 20:53:23 20:57:35 47° 93° (E) 21:01:49
PHONESAT 2.4 27 May 20:56:02 20:58:41 25° 147° (SSE) 21:01:20 2401.200-2431.200
PRISM 27 May 20:57:36 21:01:46 64° 102° (ESE) 21:05:51 437.425
Cosmos 2499 27 May 21:00:06 21:03:29 14° 79° (E) 21:06:56 435.465 / 435.565
BEESAT 3 27 May 21:00:30 21:04:26 66° 243° (WSW) 21:08:19 437.485
O/OREOS (USA 219) 27 May 21:03:34 21:05:16 12° 262° (W) 21:06:58 437.305
GONETS M04 27 May 21:03:58 21:11:42 36° 86° (E) 21:19:23
ISS 27 May 21:10:50 21:14:04 65° 318° (NW) 21:17:19 145.825
RS-15 27 May 21:13:52 21:20:04 15° 343° (NNW) 21:26:26 29.354- 29.394
UWE-3 27 May 21:18:55 21:23:14 66° 260° (W) 21:27:26 435.000/436.395/437.385
DELFI C3 27 May 21:20:01 21:23:40 37° 74° (ENE) 21:27:22 145.870
FUNcube-1 27 May 21:22:47 21:27:02 82° 77° (ENE) 21:31:13 145.935
SEEDS 27 May 21:41:22 21:41:53 10° 269° (W) 21:42:23 437.485
DANDE 27 May 21:59:53 22:05:17 18° 65° (ENE) 22:10:20 436.750
UNISAT 6 27 May 22:00:31 22:02:48 14° 94° (E) 22:05:04 437.425
BEESAT 2 27 May 22:04:16 22:07:19 21° 249° (WSW) 22:10:21 435.950
CUSAT 1 27 May 22:04:36 22:11:19 33° 71° (ENE) 22:16:58 437.405
Oscar 11 27 May 22:07:16 22:10:44 24° 264° (W) 22:14:13 145.826/435.025
TIGRISAT 27 May 22:07:40 22:10:20 16° 94° (E) 22:13:01 435.000
ESTCUBE 1 27 May 22:12:45 22:14:49 13° 66° (ENE) 22:16:53 437.505/2401.250
ZACube-1 27 May 22:22:27 22:25:21 18° 265° (W) 22:28:15 437.345
CUBEBUG 1 27 May 22:27:00 22:28:52 12° 66° (ENE) 22:30:43 437.445
HUMSAT D 27 May 22:27:54 22:31:57 69° 258° (WSW) 22:36:01 437.325/437.525
DX 1 27 May 22:29:31 22:30:24 11° 64° (ENE) 22:31:18 434.975-435.025
PHONESAT 2.4 27 May 22:32:13 22:35:18 53° 341° (NNW) 22:38:22 2401.200-2431.200
VELOX 1 27 May 22:33:41 22:36:11 15° 67° (ENE) 22:38:43 145.980
AIST 1 27 May 22:33:46 22:35:25 12° 288° (WNW) 22:37:05
AIST 2 27 May 22:36:22 22:40:17 40° 57° (ENE) 22:44:12 435.215
ANTELSAT 27 May 22:40:09 22:44:15 41° 99° (E) 22:48:25 437.575/2403.000
Cosmos 2499 27 May 22:48:12 22:55:22 80° 276° (W) 23:03:04 435.465 / 435.565
DELFI C3 27 May 22:57:02 22:58:40 12° 267° (W) 23:00:19 145.870
GONETS M04 27 May 23:00:01 23:08:14 43° 283° (WNW) 23:16:29
SO-50 27 May 23:05:22 23:08:27 17° 108° (ESE) 23:11:33 436.795
AISAT 27 May 23:07:56 23:12:04 38° 72° (ENE) 23:16:13 437.250
UKube-1 27 May 23:15:15 23:18:59 29° 71° (ENE) 23:22:44 .
POPSAT HIP 1 27 May 23:18:32 23:21:22 18° 95° (E) 23:24:13 437.405
QB50P1 27 May 23:18:51 23:21:46 18° 95° (E) 23:24:41 145.935-145.965
QB50P2 27 May 23:21:01 23:24:11 21° 95° (E) 23:27:20 145.880/145.840
POLYITAN 1 27 May 23:23:26 23:26:39 21° 96° (E) 23:29:50 437.675
50 SAT 27 May 23:30:03 23:33:39 78° 78° (ENE) 23:37:19 437.505
RS-15 27 May 23:33:08 23:40:12 16° 21° (NNE) 23:47:16 29.354- 29.394
UNISAT 6 27 May 23:35:35 23:39:38 40° 287° (WNW) 23:43:44 437.425
NANOSAT C BR1 27 May 23:36:35 23:40:13 28° 97° (E) 23:43:49 145.865
DANDE 27 May 23:40:46 23:49:14 87° 263° (W) 23:56:34 436.750
TIGRISAT 27 May 23:43:11 23:47:05 35° 287° (WNW) 23:51:04 435.000
CUSAT 1 27 May 23:46:38 23:53:26 39° 272° (W) 23:59:05 437.405
ESTCUBE 1 27 May 23:46:46 23:51:08 51° 260° (W) 23:55:33 437.505/2401.250
CUBEBUG 1 28 May 00:00:21 00:04:39 52° 260° (W) 00:09:00 437.445
DX 1 28 May 00:01:43 00:06:02 61° 259° (WSW) 00:10:23 434.975-435.025
VELOX 1 28 May 00:08:01 00:12:16 43° 261° (W) 00:16:31 145.980
PHONESAT 2.4 28 May 00:09:42 00:12:25 26° 358° (N) 00:15:07 2401.200-2431.200
DUCHIFAT 1 28 May 00:14:37 00:18:48 82° 105° (ESE) 00:22:58 145.980
AIST 2 28 May 00:16:08 00:18:24 14° 251° (WSW) 00:20:38 435.215
ANTELSAT 28 May 00:18:18 00:20:36 14° 293° (WNW) 00:22:56 437.575/2403.000
SPROUT 28 May 00:26:14 00:30:31 72° 259° (WSW) 00:34:49 437.525
BUGSAT 1 28 May 00:31:55 00:35:53 56° 100° (E) 00:39:48 437.445
JAS-2 28 May 00:34:33 00:40:26 26° 92° (E) 00:45:46 435.910
SO-50 28 May 00:43:48 00:48:31 48° 303° (WNW) 00:53:17 436.795
AISAT 28 May 00:45:54 00:48:38 16° 266° (W) 00:51:23 437.250
Cosmos 2499 28 May 00:48:12 00:49:52 11° 297° (WNW) 00:51:33 435.465 / 435.565
TISAT 1 28 May 00:49:34 00:53:41 53° 75° (ENE) 00:57:48 437.305
UKube-1 28 May 00:51:50 00:55:00 20° 264° (W) 00:58:11 .
POPSAT HIP 1 28 May 00:53:31 00:57:10 30° 288° (WNW) 01:00:49 437.405
QB50P1 28 May 00:53:55 00:57:32 29° 289° (WNW) 01:01:10 145.935-145.965
QB50P2 28 May 00:56:26 00:59:55 26° 289° (WNW) 01:03:24 145.880/145.840
POLYITAN 1 28 May 00:58:55 01:02:22 25° 289° (WNW) 01:05:49 437.675
NANOSAT C BR1 28 May 01:12:46 01:15:43 19° 291° (WNW) 01:18:40 145.865
Oscar 19 28 May 01:12:53 01:16:44 21° 95° (E) 01:20:33 437.125/150
DANDE 28 May 01:26:32 01:30:40 15° 281° (W) 01:34:35 436.750
YUBILEINY 28 May 01:32:24 01:33:51 10° 62° (ENE) 01:35:17 435.215
Gurwin Techsat 1B 28 May 01:38:36 01:41:36 15° 93° (E) 01:44:35 435.225
SWISSCUBE 28 May 01:39:24 01:43:46 37° 71° (ENE) 01:48:08 437.505
RS-15 28 May 01:45:07 01:56:56 48° 51° (NE) 02:08:38 29.354- 29.394
ITUPSAT 1 28 May 01:45:42 01:50:05 38° 71° (ENE) 01:54:29 437.325
PHONESAT 2.4 28 May 01:46:39 01:49:36 37° 14° (NNE) 01:52:32 2401.200-2431.200
BEESAT 28 May 02:08:39 02:13:22 72° 76° (ENE) 02:18:07 436.000
JAS-2 28 May 02:18:42 02:25:43 49° 290° (WNW) 02:31:58 435.910
Cosmos 2491 28 May 02:23:10 02:26:55 13° 78° (ENE) 02:30:39 435.465 / 435.565
Oscar 19 28 May 02:51:24 02:56:08 38° 289° (WNW) 03:00:49 437.125/150
KKS-1 28 May 02:59:29 03:03:15 27° 70° (ENE) 03:07:01 437.445
Gurwin Techsat 1B 28 May 03:16:39 03:21:50 55° 287° (WNW) 03:27:00 435.225
MOZHAYETS 4 28 May 03:17:17 03:21:15 30° 71° (ENE) 03:25:15
SWISSCUBE 28 May 03:18:23 03:21:38 18° 266° (W) 03:24:54 437.505
PHONESAT 2.4 28 May 03:23:23 03:26:23 44° 209° (SSW) 03:29:22 2401.200-2431.200
YUBILEINY 28 May 03:23:32 03:32:16 70° 82° (E) 03:41:02 435.215
ITUPSAT 1 28 May 03:24:49 03:28:01 18° 266° (W) 03:31:13 437.325
ITAMSAT 1 28 May 03:33:16 03:38:32 81° 105° (ESE) 03:43:45 435.822/435.867
STARS 28 May 03:33:57 03:37:53 32° 72° (ENE) 03:41:49 437.465
AO-7 28 May 03:39:48 03:47:18 35° 99° (E) 03:54:45 29.400- 29.500
ISS 28 May 03:41:33 03:44:24 27° 36° (NE) 03:47:13 145.825
RS-15 28 May 03:57:51 04:09:26 50° 252° (WSW) 04:20:53 29.354- 29.394
Cosmos 2504 28 May 04:09:48 04:17:42 40° 77° (ENE) 04:25:50 435.465 / 435.565
Cosmos 2491 28 May 04:13:29 04:22:20 85° 95° (E) 04:31:12 435.465 / 435.565
HORYU 2 28 May 04:21:54 04:23:50 13° 93° (E) 04:25:45 437.375
AO-85 28 May 04:31:15 04:34:33 16° 107° (ESE) 04:37:51 145.980
KKS-1 28 May 04:36:13 04:39:44 23° 264° (W) 04:43:16 437.445
CUBESAT XI-V 28 May 04:43:42 04:47:40 29° 71° (ENE) 04:51:42 437.345
